Terminal Aerodrome Forecast
Issued by NWS Wilmington, OH

Current Version | Previous Version | Graphics & Text | Print | Product List | Glossary On
Versions: 1 2 3 4 5 6 7 8 9 10 11 12 13 14 15 16 17 18 19 20 21 22 23 24 25 26 27 28 29 30
826
FTUS41 KILN 030439 AAA
TAFCVG
TAF AMD
KCVG 030439Z 0305/0406 30006KT P6SM FEW022 OVC035
      TEMPO 0305/0307 OVC022
     FM031000 VRB02KT P6SM OVC025
     FM031700 30005KT P6SM BKN035=

USA.gov is the U.S. government's official web portal to all federal, state and local government web resources and services.